GW5686 Weather Reports


time (UTC)temp
F
wind
direction
speed
knots
gust
knots
rain 1hr
in
rain 24hr
in
rain mn
in
humidity
%
barometer
mb
20260507174620 59 126 6.1 8.7 0.00 0.19 0.19 68 999.1
20260507174119 59 130 4.3 8.7 0.00 0.19 0.19 69 999.3
20260507173615 59 109 3.5 8.7 0.00 0.19 0.19 65 999.0
20260507173112 58 153 5.2 6.1 0.00 0.19 0.19 68 999.2
20260507172608 59 128 4.3 5.2 0.00 0.19 0.19 68 998.9
20260507172106 58 235 2.6 7.0 0.00 0.19 0.19 69 999.1
20260507171601 58 165 3.5 7.8 0.00 0.19 0.19 70 999.3
20260507171058 58 130 6.1 7.0 0.00 0.19 0.19 69 999.4
20260507170555 60 154 5.2 7.0 0.00 0.19 0.19 68 999.4
20260507170052 60 312 2.6 2.6 0.00 0.19 0.19 55 999.5
20260507165547 60 170 0.9 1.7 0.00 0.19 0.19 55 999.4
20260507165044 61 269 2.6 5.2 0.00 0.19 0.19 56 999.2
20260507164540 61 161 0.0 0.9 0.00 0.19 0.19 54 999.2
20260507164037 60 304 1.7 5.2 0.00 0.19 0.19 57 999.6
20260507163535 60 298 1.7 6.1 0.00 0.19 0.19 60 999.4
20260507163032 59 306 1.7 3.5 0.00 0.19 0.19 60 999.6
20260507162527 58 317 4.3 5.2 0.00 0.19 0.19 60 999.5
20260507162024 58 354 1.7 3.5 0.00 0.19 0.19 59 999.6
20260507161520 57 328 5.2 7.0 0.00 0.19 0.19 63 1000.0
20260507161018 57 7 2.6 7.0 0.00 0.19 0.19 63 1000.0
20260507160513 58 332 1.7 6.1 0.00 0.19 0.19 68 1000.0
20260507160010 57 47 2.6 7.0 0.00 0.19 0.19 65 1000.1
20260507155505 55 29 3.5 3.5 0.00 0.19 0.19 68 1000.2
20260507155003 55 305 3.5 5.2 0.00 0.19 0.19 71 1000.4
20260507154459 55 32 2.6 3.5 0.00 0.19 0.19 70 1000.6
20260507153956 55 282 4.3 6.1 0.00 0.19 0.19 70 1000.7
20260507153453 55 308 3.5 5.2 0.00 0.19 0.19 74 1000.9
20260507152949 55 352 1.7 7.8 0.00 0.19 0.19 75 1000.9
20260507152445 55 325 1.7 2.6 0.00 0.19 0.19 77 1000.4
20260507151942 54 113 0.9 6.1 0.00 0.19 0.19 76 1000.4
20260507151438 53 287 1.7 3.5 0.00 0.19 0.19 78 1000.3
20260507150935 53 340 2.6 5.2 0.00 0.19 0.19 78 1000.4
20260507150432 53 37 0.9 6.1 0.00 0.19 0.19 77 1000.7
20260507145928 53 331 2.6 2.6 0.00 0.19 0.19 83 1000.4
20260507145424 52 1 2.6 5.2 0.00 0.19 0.19 82 1000.7
20260507144921 51 333 1.7 2.6 0.00 0.19 0.19 82 1001.1
20260507144418 51 36 3.5 6.1 0.00 0.19 0.19 85 1000.8
20260507143915 51 295 1.7 3.5 0.00 0.19 0.19 85 1001.2
20260507143413 51 330 4.3 5.2 0.00 0.19 0.19 85 1001.0
20260507142909 51 332 0.9 3.5 0.00 0.19 0.19 87 1001.2
20260507142404 52 110 0.9 2.6 0.00 0.19 0.19 86 1001.3
20260507141902 51 323 3.5 6.1 0.00 0.19 0.19 87 1001.2
20260507141358 50 316 1.7 3.5 0.00 0.19 0.19 89 1001.4
20260507140855 49 18 4.3 5.2 0.05 0.19 0.19 89 1001.4
20260507140352 50 339 7.0 7.8 0.05 0.19 0.19 91 1001.6
20260507135849 49 335 2.6 2.6 0.00 0.18 0.18 92 1001.6
20260507135346 49 346 2.6 3.5 0.00 0.18 0.18 91 1002.3
20260507134843 50 353 2.6 5.2 0.00 0.18 0.18 91 1001.8
20260507134339 49 308 3.5 5.2 0.00 0.18 0.18 93 1001.8
20260507133835 49 303 4.3 7.0 0.00 0.18 0.18 93 1001.3
20260507133331 49 302 2.6 5.2 0.00 0.18 0.18 94 1001.2
20260507132830 49 326 2.6 6.1 0.00 0.18 0.18 94 1001.3
20260507132326 49 315 1.7 3.5 0.00 0.18 0.18 94 1001.3
20260507131823 48 2 0.9 2.6 0.00 0.18 0.18 95 1001.4
20260507131320 48 329 2.6 3.5 0.00 0.18 0.18 94 1001.5
20260507130816 48 348 1.7 3.5 0.00 0.18 0.18 95 1001.7
20260507130314 48 343 2.6 5.2 0.00 0.18 0.18 95 1001.4
20260507125813 48 1 1.7 2.6 0.00 0.18 0.18 96 1001.4
20260507125310 48 325 1.7 2.6 0.00 0.18 0.18 96 1001.3
20260507124807 48 322 3.5 6.1 0.00 0.18 0.18 96 1001.1
20260507124303 48 341 1.7 3.5 0.00 0.18 0.18 97 1001.4
20260507123802 48 40 1.7 2.6 0.00 0.18 0.18 97 1001.3
20260507123258 48 0 6.1 7.8 0.00 0.18 0.18 97 1001.9
20260507122754 47 318 4.3 7.0 0.00 0.18 0.18 97 1001.9
20260507122249 47 7 2.6 6.1 0.00 0.18 0.18 97 1001.3
20260507121746 47 292 1.7 3.5 0.00 0.18 0.18 97 1001.0
20260507121241 48 336 1.7 6.1 0.00 0.18 0.18 98 1001.5
20260507120738 48 332 2.6 3.5 0.00 0.18 0.18 98 1001.9
20260507120235 48 314 0.9 5.2 0.00 0.18 0.18 98 1001.9
20260507115731 48 311 1.7 3.5 0.00 0.18 0.18 98 1001.7
20260507115228 48 325 1.7 2.6 0.00 0.18 0.18 98 1002.1
20260507114723 48 331 1.7 2.6 0.00 0.18 0.18 98 1002.3
20260507114221 48 354 0.9 1.7 0.00 0.18 0.18 98 1002.2
20260507113718 48 341 1.7 2.6 0.00 0.18 0.18 98 1002.0
20260507113215 48 347 0.9 2.6 0.00 0.18 0.18 98 1001.8
20260507112712 48 325 0.0 1.7 0.00 0.18 0.18 98 1001.9
20260507112209 48 339 0.9 1.7 0.00 0.18 0.18 98 1002.1
20260507111706 48 291 0.0 0.9 0.00 0.18 0.18 98 1001.7
20260507111203 49 296 3.5 3.5 0.00 0.18 0.18 97 1001.7
20260507110658 49 30 2.6 6.1 0.00 0.18 0.18 97 1001.3
20260507110156 49 309 2.6 7.0 0.00 0.18 0.18 98 1001.5
20260507105652 49 353 0.9 5.2 0.00 0.18 0.18 98 1001.2
20260507105148 49 333 3.5 5.2 0.00 0.18 0.18 98 1000.9
20260507104646 49 337 1.7 6.1 0.00 0.18 0.18 98 1000.7
20260507104142 49 334 1.7 5.2 0.00 0.18 0.18 98 1000.7
20260507103638 49 335 0.9 1.7 0.00 0.18 0.18 98 1000.4
20260507103135 49 274 2.6 2.6 0.00 0.18 0.18 98 1001.0
20260507102632 49 312 2.6 2.6 0.00 0.18 0.18 98 1001.0
20260507102128 49 316 2.6 3.5 0.00 0.18 0.18 98 1001.4
20260507101624 49 334 4.3 6.1 0.00 0.18 0.18 98 1001.2
20260507101120 49 8 0.0 3.5 0.00 0.18 0.18 98 1001.0
20260507100618 49 29 1.7 5.2 0.00 0.18 0.18 98 1001.0
20260507100116 49 299 1.7 5.2 0.00 0.18 0.18 99 1000.9
20260507095614 49 342 3.5 5.2 0.00 0.18 0.18 99 1001.1
20260507095110 49 326 2.6 6.1 0.00 0.18 0.18 99 1001.2
20260507094606 49 302 1.7 5.2 0.00 0.18 0.18 99 1000.9
20260507094103 49 350 2.6 3.5 0.00 0.18 0.18 99 1000.9
20260507093601 49 349 0.9 5.2 0.00 0.18 0.18 99 1000.9
20260507093059 49 335 0.9 1.7 0.00 0.18 0.18 99 1000.6
20260507092555 49 339 2.6 3.5 0.00 0.18 0.18 99 1000.4
20260507092052 49 335 1.7 2.6 0.00 0.18 0.18 99 1000.2
20260507091549 49 63 1.7 2.6 0.00 0.18 0.18 99 1000.2
20260507091045 49 351 0.9 1.7 0.00 0.18 0.18 99 1000.3
20260507090541 49 19 0.0 1.7 0.00 0.18 0.18 99 1000.2
20260507090038 49 46 0.0 0.9 0.00 0.18 0.18 99 1000.2
20260507085535 49 46 0.9 1.7 0.00 0.18 0.18 99 1000.3
20260507085031 49 12 0.0 0.0 0.00 0.18 0.18 99 1000.9
20260507084528 49 51 0.0 0.0 0.00 0.18 0.18 99 1000.4
20260507084025 49 19 0.0 0.0 0.00 0.18 0.18 99 1000.6
20260507083521 49 330 0.0 2.6 0.00 0.18 0.18 99 1000.2
20260507083019 49 295 0.0 0.9 0.00 0.18 0.18 99 1000.2
20260507082514 49 279 0.0 0.0 0.00 0.18 0.18 99 999.8
20260507082010 49 153 0.0 0.0 0.00 0.18 0.18 99 999.6
20260507081507 49 135 0.0 0.9 0.00 0.18 0.18 99 1000.1
20260507081004 48 298 0.0 0.0 0.00 0.18 0.18 99 1000.2
20260507080459 48 173 0.0 0.0 0.07 0.18 0.18 99 1000.0
20260507075955 48 166 0.9 1.7 0.07 0.18 0.18 99 999.9
20260507075452 48 205 0.0 1.7 0.00 0.17 0.17 99 999.8
20260507074949 48 252 1.7 1.7 0.07 0.17 0.17 99 1000.0
20260507074446 48 136 0.9 1.7 0.07 0.17 0.17 99 1000.1
20260507073944 48 175 0.9 1.7 0.00 0.16 0.16 99 1000.1
20260507073439 49 176 0.9 1.7 0.00 0.16 0.16 99 999.9
20260507072936 49 212 0.9 2.6 0.05 0.16 0.16 99 1000.2
20260507072434 48 231 0.9 0.9 0.05 0.16 0.16 99 999.6
20260507071932 48 190 0.9 2.6 0.00 0.15 0.15 99 999.3
20260507071429 48 12 0.0 1.7 0.07 0.15 0.15 99 999.2
20260507070925 48 162 0.0 1.7 0.12 0.15 0.15 99 999.8
20260507070422 48 237 0.0 1.7 0.17 0.14 0.14 99 1000.0
20260507065918 48 163 0.0 2.6 0.19 0.13 0.13 98 999.8
20260507065415 48 22 0.9 2.6 0.12 0.11 0.11 98 1000.9
20260507064907 48 216 1.7 6.1 0.12 0.10 0.10 98 1000.8
20260507064405 48 96 1.7 2.6 0.12 0.09 0.09 98 1000.3
20260507063902 48 231 1.7 2.6 0.05 0.08 0.08 98 1000.1
20260507063359 48 161 2.6 5.2 0.07 0.07 0.07 98 1000.3
20260507062856 48 155 4.3 7.8 0.00 0.06 0.06 98 1000.4
20260507062352 48 143 2.6 6.1 0.00 0.06 0.06 98 1000.4
20260507061850 48 214 3.5 5.2 0.00 0.06 0.06 98 1000.5
20260507061348 49 109 1.7 7.0 0.05 0.06 0.06 98 1000.5
20260507060846 49 237 2.6 7.0 0.00 0.05 0.05 98 1000.4
20260507060344 49 136 2.6 5.2 0.00 0.05 0.05 98 1000.5
20260507055841 49 237 3.5 5.2 0.00 0.05 0.05 98 1000.4
20260507055340 49 171 4.3 7.8 0.00 0.05 0.05 98 1000.3
20260507054838 49 152 3.5 12.2 0.00 0.05 0.05 98 1000.3
20260507054334 49 265 1.7 9.6 0.00 0.05 0.05 98 1000.5
20260507053831 49 84 2.6 7.0 0.00 0.05 0.05 98 1000.5
20260507053329 49 136 3.5 6.1 0.00 0.05 0.05 98 1000.5
20260507052827 49 185 7.0 7.8 0.00 0.05 0.05 98 1000.7
20260507052324 49 135 1.7 8.7 0.00 0.05 0.05 98 1000.7
20260507051822 49 121 2.6 7.0 0.07 0.05 0.05 98 1000.8
20260507051319 49 199 6.1 11.3 0.07 0.05 0.05 98 1001.0
20260507050816 49 181 3.5 7.8 0.00 0.04 0.04 98 1001.0
20260507050312 49 152 4.3 13.0 0.00 0.04 0.04 98 1001.3
20260507045809 49 218 3.5 11.3 0.07 0.04 0.04 98 1001.0
20260507045306 49 152 3.5 13.9 0.07 0.04 0.04 98 1001.2
20260507044802 49 349 3.5 11.3 0.00 0.03 0.03 98 1001.3
20260507044259 49 219 8.7 12.2 0.00 0.03 0.03 98 1001.3
20260507043755 49 289 4.3 8.7 0.05 0.03 0.03 97 1001.4
20260507043252 49 107 7.0 11.3 0.05 0.03 0.03 97 1001.6
20260507042748 49 140 6.1 8.7 0.00 0.02 0.02 97 1001.4
20260507042243 49 211 6.1 9.6 0.00 0.02 0.02 97 1001.7
20260507041741 50 254 5.2 8.7 0.07 0.02 0.02 97 1001.7
20260507041237 50 135 4.3 14.8 0.07 0.02 0.02 97 1001.4
20260507040735 50 264 7.0 16.5 0.05 0.01 0.01 97 1001.4
20260507040230 51 302 3.5 12.2 0.17 0.01 0.01 97 1001.7
20260507035727 51 100 6.1 16.5 0.31 0.40 0.40 97 1001.8
20260507035222 51 129 7.0 14.8 0.24 0.38 0.38 97 1001.6
20260507034720 51 232 4.3 9.6 0.05 0.35 0.35 97 1001.8
20260507034217 50 151 7.8 14.8 0.07 0.34 0.34 97 1002.0
20260507033715 51 178 4.3 14.8 0.07 0.33 0.33 97 1002.2
20260507033212 50 276 5.2 13.9 0.12 0.33 0.33 97 1001.9
20260507032710 50 174 5.2 9.6 0.24 0.32 0.32 97 1002.3
20260507032205 50 120 7.8 13.9 0.24 0.30 0.30 96 1002.1
20260507031702 50 229 8.7 13.0 0.24 0.28 0.28 96 1002.4
20260507031159 50 188 7.8 11.3 0.17 0.26 0.26 96 1002.7
20260507030655 51 257 7.0 14.8 0.24 0.24 0.24 96 1002.4
20260507030154 51 216 7.0 12.2 0.31 0.22 0.22 96 1002.8
20260507025651 51 99 7.0 13.0 0.31 0.20 0.20 96 1002.7
20260507025147 51 171 7.8 14.8 0.19 0.18 0.18 96 1003.1
20260507024646 51 235 7.0 16.5 0.19 0.16 0.16 96 1003.2
20260507024142 51 157 6.1 11.3 0.28 0.15 0.15 96 1003.4
20260507023638 51 204 5.2 11.3 0.24 0.13 0.13 96 1003.6
20260507023136 51 196 6.1 11.3 0.12 0.10 0.10 96 1003.6
20260507022632 51 154 7.8 14.8 0.12 0.09 0.09 96 1003.6
20260507022127 51 203 7.8 12.2 0.19 0.08 0.08 95 1004.1
20260507021624 51 108 4.3 16.5 0.19 0.07 0.07 95 1004.1
20260507021120 51 210 4.3 8.7 0.12 0.05 0.05 95 1004.2
20260507020619 51 205 9.6 13.0 0.17 0.04 0.04 95 1004.2
20260507020114 50 185 9.6 13.9 0.19 0.03 0.03 94 1004.4
20260507015613 50 154 6.1 11.3 0.07 0.01 0.01 94 1004.6
20260507015110 50 147 5.2 15.6 0.00 0.00 0.00 94 1004.7
20260507014606 50 168 4.3 8.7 0.00 0.00 0.00 93 1004.7
20260507014102 50 77 2.6 9.6 0.00 0.00 0.00 93 1004.7
20260507013559 50 109 3.5 9.6 0.00 0.00 0.00 93 1005.0
20260507013056 51 87 1.7 14.8 0.00 0.00 0.00 93 1005.0
20260507012554 51 144 4.3 13.0 0.00 0.00 0.00 93 1005.1
20260507012049 50 170 3.5 7.8 0.00 0.00 0.00 93 1005.2
20260507011547 50 265 6.1 8.7 0.00 0.00 0.00 92 1005.1
20260507011038 51 227 6.1 11.3 0.00 0.00 0.00 92 1005.1
20260507010538 51 255 5.2 13.9 0.00 0.00 0.00 91 1005.4
20260507010034 51 290 4.3 15.6 0.00 0.00 0.00 91 1005.7
20260507005532 51 143 6.1 11.3 0.00 0.00 0.00 91 1005.7
20260507005028 51 195 6.1 13.9 0.00 0.00 0.00 91 1005.7
20260507004525 51 156 5.2 12.2 0.00 0.00 0.00 91 1005.8
20260507004023 51 165 5.2 13.0 0.00 0.00 0.00 91 1005.8
20260507003518 51 182 7.0 8.7 0.00 0.00 0.00 92 1006.0
20260507003013 51 91 7.0 13.0 0.00 0.00 0.00 92 1005.7
20260507002510 50 198 5.2 8.7 0.00 0.00 0.00 92 1005.6
20260507002006 50 243 6.1 13.9 0.00 0.00 0.00 92 1005.9
20260507001503 50 225 6.1 9.6 0.00 0.00 0.00 92 1006.0
20260507001000 50 181 8.7 13.0 0.00 0.00 0.00 92 1006.0
20260507000456 50 147 3.5 8.7 0.00 0.00 0.00 92 1005.5
20260506235951 50 230 5.2 11.3 0.00 0.00 0.00 92 1005.7
20260506235450 50 149 5.2 9.6 0.00 0.00 0.00 91 1005.4
20260506234945 50 80 7.8 15.6 0.00 0.00 0.00 91 1006.2
20260506234443 51 212 5.2 13.0 0.00 0.00 0.00 91 1005.1
20260506233940 51 214 6.1 13.9 0.00 0.00 0.00 91 1005.5
20260506233436 51 93 4.3 9.6 0.00 0.00 0.00 91 1006.1
20260506232933 51 167 6.1 12.2 0.00 0.00 0.00 91 1006.3
20260506232429 51 202 4.3 12.2 0.00 0.00 0.00 90 1006.4
20260506231925 51 267 5.2 9.6 0.00 0.00 0.00 90 1006.3
20260506231423 52 228 7.8 12.2 0.00 0.00 0.00 90 1006.2
20260506230920 52 209 5.2 13.9 0.00 0.00 0.00 90 1006.1
20260506230416 52 192 5.2 13.0 0.00 0.00 0.00 90 1006.3
20260506225913 52 121 5.2 9.6 0.00 0.00 0.00 89 1006.4
20260506225411 53 171 3.5 7.0 0.00 0.00 0.00 89 1006.2
20260506224907 53 253 5.2 7.8 0.00 0.00 0.00 89 1006.5
20260506224405 53 234 2.6 7.8 0.00 0.00 0.00 89 1006.6
20260506223900 53 188 5.2 11.3 0.00 0.00 0.00 89 1006.6
20260506223356 53 242 5.2 13.0 0.00 0.00 0.00 89 1006.7
20260506222853 53 125 7.8 11.3 0.00 0.00 0.00 89 1006.5
20260506222349 53 132 7.0 14.8 0.00 0.00 0.00 89 1006.9
20260506221847 53 176 3.5 9.6 0.00 0.00 0.00 89 1006.7
20260506221344 53 147 7.8 12.2 0.00 0.00 0.00 88 1006.8
20260506220842 53 205 5.2 13.0 0.00 0.00 0.00 88 1006.8
20260506220337 53 199 7.0 9.6 0.00 0.00 0.00 88 1006.8
20260506215834 54 132 5.2 7.8 0.00 0.00 0.00 88 1006.7
20260506215330 54 206 7.8 12.2 0.00 0.00 0.00 88 1006.8
20260506214826 53 139 4.3 11.3 0.00 0.00 0.00 88 1006.5
20260506214322 53 142 5.2 9.6 0.00 0.00 0.00 89 1006.8
20260506213821 53 201 3.5 6.1 0.00 0.00 0.00 89 1006.9
20260506213318 53 144 3.5 5.2 0.00 0.00 0.00 89 1007.2
20260506212815 53 93 4.3 7.8 0.00 0.00 0.00 88 1006.7
20260506212311 53 151 7.8 9.6 0.00 0.00 0.00 88 1007.0
20260506211806 53 259 4.3 9.6 0.00 0.00 0.00 89 1006.5
20260506211302 53 95 3.5 9.6 0.00 0.00 0.00 89 1006.6
20260506210800 53 203 5.2 11.3 0.00 0.00 0.00 88 1006.6
20260506210256 54 159 7.0 14.8 0.00 0.00 0.00 88 1006.1
20260506205754 54 181 9.6 13.9 0.00 0.00 0.00 88 1006.6
20260506205249 54 223 7.0 9.6 0.00 0.00 0.00 88 1006.5
20260506204746 54 166 4.3 7.8 0.00 0.00 0.00 88 1006.2
20260506204244 54 144 6.1 11.3 0.00 0.00 0.00 87 1006.6
20260506203742 54 200 4.3 9.6 0.00 0.00 0.00 87 1006.6
20260506203238 54 253 5.2 11.3 0.00 0.00 0.00 88 1006.7
20260506202736 54 137 4.3 8.7 0.00 0.00 0.00 87 1006.6
20260506202232 54 198 7.8 13.9 0.00 0.00 0.00 87 1006.3
20260506201729 54 155 5.2 13.9 0.00 0.00 0.00 87 1006.5
20260506201226 54 179 9.6 18.2 0.00 0.00 0.00 87 1006.7
20260506200723 55 116 7.0 11.3 0.00 0.00 0.00 86 1006.6
20260506200219 55 210 5.2 7.8 0.00 0.00 0.00 86 1006.6
20260506195716 55 252 4.3 8.7 0.00 0.00 0.00 86 1006.8
20260506195213 55 209 7.0 7.8 0.00 0.00 0.00 86 1006.8
20260506194710 55 184 5.2 7.0 0.00 0.00 0.00 86 1006.6
20260506194206 55 142 5.2 13.0 0.00 0.00 0.00 87 1006.7
20260506193704 54 165 7.0 11.3 0.00 0.00 0.00 87 1006.7
20260506193201 54 251 6.1 12.2 0.00 0.00 0.00 87 1007.0
20260506192657 54 229 3.5 8.7 0.00 0.00 0.00 87 1006.8
20260506192154 53 243 5.2 11.3 0.00 0.00 0.00 87 1006.9
20260506191651 54 155 5.2 11.3 0.00 0.00 0.00 87 1007.0
20260506191147 53 187 5.2 8.7 0.00 0.00 0.00 87 1006.9
20260506190644 53 233 6.1 15.6 0.00 0.00 0.00 87 1007.0
20260506190141 53 179 5.2 12.2 0.00 0.00 0.00 87 1006.7
20260506185638 53 200 3.5 7.8 0.00 0.00 0.00 87 1006.9
20260506185134 54 210 4.3 7.0 0.00 0.00 0.00 87 1007.2
20260506184632 54 159 1.7 7.0 0.00 0.00 0.00 87 1007.0
20260506184129 54 256 5.2 8.7 0.00 0.00 0.00 87 1007.0
20260506183625 54 141 9.6 13.9 0.00 0.00 0.00 87 1007.2
20260506183121 54 158 4.3 7.8 0.00 0.00 0.00 87 1007.2
20260506182619 54 135 6.1 8.7 0.00 0.00 0.00 87 1007.2
20260506182116 54 206 5.2 8.7 0.00 0.00 0.00 87 1007.5
20260506181614 54 142 7.0 13.9 0.00 0.00 0.00 86 1007.2
20260506181111 54 92 7.8 12.2 0.00 0.00 0.00 87 1007.5
20260506180608 54 121 9.6 13.0 0.00 0.00 0.00 86 1007.6
20260506180104 54 105 4.3 13.0 0.00 0.00 0.00 86 1007.5
20260506175600 54 238 5.2 7.8 0.00 0.00 0.00 86 1007.5
20260506175056 54 150 7.0 11.3 0.00 0.00 0.00 86 1007.5